Biloxi, MS

6:50 PM CST on December 15, 2017 (GMT -0600)
Keesler Air Force Base

Weather History for KBIX - September, 2011

Change the Weather History Date:

Sunday, September 25, 2011

  Actual Average Record
Temperature  
Mean Temperature 81 °F -  
Max Temperature 86 °F 84 °F 92 °F (1961)
Min Temperature 76 °F 68 °F 49 °F (1983)
Cooling Degree Days 16    
Growing Degree Days 31 (Base 50)    
Moisture  
Dew Point 71 °F    
Average Humidity 74    
Maximum Humidity 83    
Minimum Humidity 54    
Precipitation  
Precipitation 0.00 in - - ()
Sea Level Pressure  
Sea Level Pressure 29.89 in    
Wind  
Wind Speed 8 mph (SSW)    
Max Wind Speed 15 mph    
Max Gust Speed -    
Visibility 10 miles    
Events      
Averages and records for this station are not official NWS values.
T = Trace of Precipitation, MM = Missing Value Source: NWS Daily Summary

Daily Weather History Graph

Daily Weather History Graph

Search for Another Location

Airport or City:

Trip Planner

Search our weather history database for the weather conditions in past years. The results will help you decide how hot, cold, wet, or windy it might be!

Date:

Astronomy

Sep. 25, 2011 Rise Set
Actual Time 6:45 AM CDT 6:48 PM CDT
Civil Twilight 6:21 AM CDT 7:12 PM CDT
Nautical Twilight 5:53 AM CDT 7:40 PM CDT
Astronomical Twilight 5:25 AM CDT 8:08 PM CDT
Moon 4:39 AM CDT (9/25) 5:25 PM CDT (9/25)
Length of Visible Light 12h 51m
Length of Day
12h 03m
Waning Crescent, 5% of the Moon is Illuminated
Sep 25
Waning Crescent
Sep 27
New
Oct 3
First Quarter
Oct 11
Full
Oct 19
Last Quarter

Hourly Weather History & Observations

Time (CDT) Temp. Heat Index Dew Point Humidity Pressure Visibility Wind Dir Wind Speed Gust Speed Precip Events Conditions
12:55 AM 79.5 °F - 72.3 °F 79% 29.92 in 10.0 mi South 6.9 mph - N/A   Scattered Clouds
1:55 AM 79.3 °F - 72.3 °F 79% 29.91 in 10.0 mi South 8.1 mph - N/A   Scattered Clouds
2:55 AM 79.2 °F - 73.0 °F 81% 29.90 in 10.0 mi South 9.2 mph - N/A   Partly Cloudy
3:55 AM 79.0 °F - 73.2 °F 82% 29.89 in 10.0 mi South 9.2 mph - N/A   Partly Cloudy
4:24 AM 78.8 °F - 73.4 °F 83% 29.89 in 10.0 mi SSW 10.4 mph - N/A   Mostly Cloudy
4:31 AM 78.8 °F - 73.4 °F 83% 29.89 in 10.0 mi SSW 9.2 mph - N/A   Scattered Clouds
4:32 AM 78.8 °F - 73.4 °F 83% 29.89 in 10.0 mi SSW 9.2 mph - N/A   Mostly Cloudy
4:55 AM 79.0 °F - 72.9 °F 81% 29.90 in 10.0 mi SSW 9.2 mph - N/A   Mostly Cloudy
4:58 AM 78.8 °F - 73.4 °F 83% 29.90 in 10.0 mi SSW 8.1 mph - N/A   Scattered Clouds
5:05 AM 78.8 °F - 73.4 °F 83% 29.90 in 10.0 mi SSW 10.4 mph - N/A   Mostly Cloudy
5:16 AM 78.8 °F - 73.4 °F 83% 29.90 in 10.0 mi SSW 10.4 mph - N/A   Mostly Cloudy
5:44 AM 78.8 °F - 73.4 °F 83% 29.90 in 10.0 mi WSW 8.1 mph - N/A   Mostly Cloudy
5:45 AM 78.8 °F - 73.4 °F 83% 29.90 in 10.0 mi WSW 9.2 mph - N/A   Scattered Clouds
5:46 AM 78.8 °F - 73.4 °F 83% 29.90 in 10.0 mi WSW 9.2 mph - N/A   Mostly Cloudy
5:48 AM 78.8 °F - 73.4 °F 83% 29.90 in 10.0 mi WSW 8.1 mph - N/A   Scattered Clouds
5:49 AM 78.8 °F - 73.4 °F 83% 29.90 in 10.0 mi WSW 6.9 mph - N/A   Mostly Cloudy
5:51 AM 78.8 °F - 73.4 °F 83% 29.90 in 10.0 mi WSW 5.8 mph - N/A   Scattered Clouds
5:55 AM 78.4 °F - 72.5 °F 82% 29.90 in 10.0 mi WSW 8.1 mph - N/A   Scattered Clouds
6:55 AM 76.1 °F - 69.4 °F 80% 29.92 in 10.0 mi Calm Calm - N/A   Clear
7:55 AM 77.4 °F - 70.0 °F 78% 29.93 in 10.0 mi Calm Calm - N/A   Clear
8:55 AM 80.8 °F 84.1 °F 69.8 °F 69% 29.94 in 10.0 mi Calm Calm - N/A   Clear
9:55 AM 82.8 °F 86.4 °F 69.6 °F 64% 29.95 in 10.0 mi WSW 6.9 mph - N/A   Clear
10:55 AM 83.7 °F 87.5 °F 69.3 °F 62% 29.95 in 10.0 mi SW 8.1 mph - N/A   Clear
11:55 AM 85.3 °F 88.5 °F 68.0 °F 56% 29.94 in 10.0 mi SW 9.2 mph - N/A   Clear
12:55 PM 86.0 °F 89.1 °F 67.5 °F 54% 29.92 in 10.0 mi SW 9.2 mph - N/A   Clear
1:55 PM 84.0 °F 87.6 °F 68.5 °F 60% 29.91 in 10.0 mi Variable 6.9 mph - N/A   Clear
2:55 PM 85.6 °F 89.1 °F 68.4 °F 56% 29.88 in 10.0 mi SSW 10.4 mph - N/A   Clear
3:55 PM 85.5 °F 89.8 °F 69.6 °F 59% 29.87 in 10.0 mi South 10.4 mph - N/A   Clear
4:55 PM 84.7 °F 89.1 °F 70.0 °F 61% 29.86 in 10.0 mi South 9.2 mph - N/A   Clear
5:55 PM 82.9 °F 86.7 °F 69.4 °F 64% 29.85 in 10.0 mi South 10.4 mph - N/A   Clear
6:55 PM 81.3 °F 84.6 °F 69.6 °F 67% 29.85 in 10.0 mi South 10.4 mph - N/A   Clear
7:55 PM 81.1 °F 84.9 °F 70.3 °F 70% 29.84 in 10.0 mi South 11.5 mph - N/A   Clear
8:55 PM 81.3 °F 85.8 °F 72.0 °F 73% 29.83 in 10.0 mi South 12.7 mph - N/A   Clear
9:55 PM 81.3 °F 85.9 °F 72.5 °F 74% 29.84 in 10.0 mi SSW 15.0 mph - N/A   Mostly Cloudy
10:55 PM 80.6 °F 83.8 °F 69.4 °F 69% 29.87 in 10.0 mi SW 12.7 mph - N/A   Clear
11:55 PM 79.7 °F - 69.8 °F 72% 29.87 in 10.0 mi SSW 11.5 mph - N/A   Clear